Jackson, MI

1:12 PM EST on February 10, 2016 (GMT -0500)
Jackson County-Reynolds

Weather History for KJXN - June, 2014

Change the Weather History Date:

Monday, June 23, 2014

  Actual Average Record
Temperature  
Mean Temperature 70 °F 70 °F  
Max Temperature 78 °F 81 °F 92 °F (1964)
Min Temperature 61 °F 58 °F 45 °F (1963)
Degree Days  
Heating Degree Days 0 1  
Month to date heating degree days 31 49  
Since 1 June heating degree days 31 49  
Since 1 July heating degree days 7533 6651  
Cooling Degree Days 5 5  
Month to date cooling degree days 85 84  
Year to date cooling degree days 119 121  
Since 1 June cooling degree days 85 84  
Growing Degree Days 20 (Base 50)    
Moisture  
Dew Point 65 °F    
Average Humidity 83    
Maximum Humidity 97    
Minimum Humidity 68    
Precipitation  
Precipitation 1.16 in 0.11 in 1.26 in (1968)
Month to date precipitation 4.48 2.51  
Year to date precipitation 16.81 13.11  
Sea Level Pressure  
Sea Level Pressure 29.91 in    
Wind  
Wind Speed 5 mph (South)    
Max Wind Speed 15 mph    
Max Gust Speed 19 mph    
Visibility 6 miles    
Events Fog , Rain , Thunderstorm    
T = Trace of Precipitation, MM = Missing Value Source: NWS Daily Summary

Daily Weather History Graph

Daily Weather History Graph

Search for Another Location

Airport or City:

Trip Planner

Search our weather history database for the weather conditions in past years. The results will help you decide how hot, cold, wet, or windy it might be!

Date:

Astronomy

Jun. 23, 2014 Rise Set
Actual Time 6:01 AM EDT 9:18 PM EDT
Civil Twilight 5:27 AM EDT 9:52 PM EDT
Nautical Twilight 4:42 AM EDT 10:37 PM EDT
Astronomical Twilight 3:47 AM EDT 11:32 PM EDT
Moon 3:30 AM EDT (6/23) 5:55 PM EDT (6/23)
Length of Visible Light 16h 25m
Length of Day
15h 16m
Waning Crescent, 13% of the Moon is Illuminated
Jun 23
Waning Crescent
Jun 27
New
Jul 5
First Quarter
Jul 12
Full
Jul 18
Last Quarter

Hourly Weather History & Observations

Time (EDT) Temp. Dew Point Humidity Pressure Visibility Wind Dir Wind Speed Gust Speed Precip Events Conditions
12:56 AM 66.0 °F 55.0 °F 68% 29.92 in 10.0 mi SSE 8.1 mph - N/A   Clear
1:56 AM 64.9 °F 55.9 °F 73% 29.90 in 10.0 mi SE 6.9 mph - N/A   Clear
2:56 AM 63.0 °F 55.9 °F 78% 29.91 in 10.0 mi SE 3.5 mph - N/A   Clear
3:56 AM 61.0 °F 57.0 °F 87% 29.91 in 10.0 mi ESE 3.5 mph - N/A   Clear
4:56 AM 61.0 °F 57.0 °F 87% 29.91 in 10.0 mi Calm Calm - N/A   Clear
5:56 AM 62.1 °F 57.0 °F 84% 29.91 in 10.0 mi Calm Calm - N/A   Clear
6:56 AM 63.0 °F 57.9 °F 84% 29.90 in 10.0 mi ESE 4.6 mph - N/A   Clear
7:56 AM 64.9 °F 59.0 °F 81% 29.89 in 10.0 mi SE 4.6 mph - N/A   Clear
8:56 AM 68.0 °F 61.0 °F 78% 29.89 in 10.0 mi SSE 6.9 mph - N/A   Clear
9:56 AM 71.1 °F 64.0 °F 78% 29.91 in 10.0 mi South 5.8 mph - N/A   Mostly Cloudy
10:56 AM 70.0 °F 66.0 °F 87% 29.93 in 10.0 mi Calm Calm - 0.01 in Rain Light Rain
11:56 AM 70.0 °F 66.9 °F 90% 29.95 in 2.5 mi WSW 4.6 mph - 0.06 in Rain Rain
12:14 PM 69.1 °F 66.9 °F 93% 29.97 in 4.0 mi SW 4.6 mph - 0.04 in Rain Light Rain
12:38 PM 69.1 °F 66.0 °F 90% 29.97 in 2.5 mi SW 4.6 mph - 0.11 in Rain Rain
12:47 PM 69.1 °F 66.0 °F 90% 29.97 in 3.0 mi South 4.6 mph - 0.13 in Rain Rain
12:56 PM 69.1 °F 66.9 °F 93% 29.95 in 2.5 mi SE 4.6 mph - 0.17 in Rain Rain
1:03 PM 69.1 °F 66.9 °F 93% 29.96 in 4.0 mi SSE 5.8 mph - 0.02 in Rain Rain
1:56 PM 68.0 °F 66.0 °F 93% 29.91 in 1.0 mi Variable 3.5 mph - 0.22 in Rain Heavy Rain
2:03 PM 68.0 °F 66.0 °F 93% 29.92 in 4.0 mi SSE 3.5 mph - 0.00 in Rain Light Rain
2:13 PM 68.0 °F 66.0 °F 93% 29.95 in 1.5 mi Variable 4.6 mph - 0.06 in Rain Rain
2:17 PM 68.0 °F 66.0 °F 93% 29.94 in 0.5 mi SSW 4.6 mph - 0.23 in Fog , Rain Heavy Rain
2:24 PM 68.0 °F 66.0 °F 93% 29.94 in 0.2 mi Variable 5.8 mph - 0.49 in Fog , Rain Heavy Rain
2:29 PM 68.0 °F 66.9 °F 96% 29.94 in 0.5 mi South 6.9 mph - 0.51 in Fog , Rain Rain
2:38 PM 69.1 °F 66.9 °F 93% 29.94 in 1.2 mi South 4.6 mph - 0.59 in Rain Rain
2:41 PM 69.1 °F 68.0 °F 96% 29.93 in 2.0 mi South 6.9 mph - 0.59 in Rain Light Rain
2:49 PM 70.0 °F 68.0 °F 93% 29.93 in 10.0 mi SSE 6.9 mph - 0.59 in   Overcast
2:56 PM 70.0 °F 68.0 °F 93% 29.92 in 10.0 mi South 5.8 mph - 0.59 in   Overcast
3:56 PM 75.9 °F 68.0 °F 76% 29.90 in 10.0 mi SE 8.1 mph - N/A   Clear
4:56 PM 73.0 °F 68.0 °F 84% 29.88 in 10.0 mi SE 6.9 mph - N/A   Mostly Cloudy
5:35 PM 77.0 °F 71.1 °F 82% 29.88 in 10.0 mi SSE 8.1 mph - N/A   Mostly Cloudy
5:56 PM 78.1 °F 71.1 °F 79% 29.86 in 10.0 mi SSE 9.2 mph - N/A   Mostly Cloudy
6:56 PM 75.0 °F 69.1 °F 82% 29.86 in 10.0 mi South 8.1 mph - N/A   Clear
7:56 PM 72.0 °F 68.0 °F 87% 29.87 in 10.0 mi South 5.8 mph - N/A   Mostly Cloudy
8:08 PM 71.1 °F 68.0 °F 90% 29.88 in 9.0 mi South 4.6 mph - 0.01 in Rain , Thunderstorm Light Rain
8:24 PM 71.1 °F 68.0 °F 90% 29.90 in 1.8 mi WSW 3.5 mph - 0.05 in Rain , Thunderstorm Rain
8:30 PM 71.1 °F 68.0 °F 90% 29.89 in 2.5 mi Calm Calm - 0.06 in Rain Light Rain
8:32 PM 71.1 °F 68.0 °F 90% 29.89 in 3.0 mi Calm Calm - 0.06 in Rain , Thunderstorm Light Rain
8:53 PM 69.8 °F 68.0 °F 94% 29.90 in 7.0 mi Calm Calm - 0.07 in Rain Light Rain
8:56 PM 70.0 °F 68.0 °F 93% 29.89 in 8.0 mi SW 3.5 mph - 0.08 in   Mostly Cloudy
9:56 PM 70.0 °F 68.0 °F 93% 29.88 in 9.0 mi SSE 6.9 mph - 0.00 in   Mostly Cloudy
10:56 PM 69.1 °F 68.0 °F 96% 29.89 in 4.0 mi South 4.6 mph - 0.02 in Rain Rain
11:56 PM 69.1 °F 66.9 °F 93% 29.88 in 8.0 mi SSW 3.5 mph - 0.01 in   Scattered Clouds